www.pogodaiklimat.ru

Погода и климат >> Архив погоды >> Канада >> Timmins


ПОГОДА в Timmins

  • Прогноз погоды в Timmins
  • Монитор погоды в Timmins
  • Климат города

АРХИВ ПОГОДЫ в Timmins

Время (UTC), дата Ветер
(напр.,м/с)
 
Видим.   Явления Облачность Т
(С)
Тd
(С)
f
(%)
Тe
(С)
Тes
(С)
Комфортность P
(гПа)
Po
(гПа)
Тmin
(С)
Tmax
(С)
R
(мм)
S
(см)
03 21.03 З 2 24 км 1/0
[]
-2.8 -10.6 55 -6 -6 1013.8 977.4
06 21.03 ЮЗ 2 24 км 3/0
[Ci fib]
-6.0 -11.4 66 -10 -10 1013.0 976.6 -6.7 +8.6 211
09 21.03 Ю 2 24 км 4/0
[]
-5.2 -11.4 62 -8 -8 1011.1 974.9
12 21.03 З 2 24 км 9/6 600 м
[Sc Ac As Ci fib]
-4.9 -10.1 67 -8 -8 1011.4 975.0 -7.5 +8.6
15 21.03 С 6 800 м н/о -8.6 -11.0 83 -17 -17 1017.3 980.3
18 21.03 С 7 16 км слабый снег 10/4 600 м
[Sc Ac und]
-10.2 -17.8 54 -19 -19 1020.5 983.2 -10.6 -1.6
21 21.03 С 8 24 км 1/0
[]
-8.9 -22.5 32 -18 -17 1021.5 984.2
00 22.03 С 5 24 км {снег} 1/1 600 м
[Sc]
-12.4 -23.7 38 -21 -21 1025.1 987.5 -12.4 -3.3
03 22.03 СЗ 5 24 км ясно -15.5 -23.1 52 -25 -25 1029.0 991.0
06 22.03 З 2 24 км ясно -18.7 -23.8 64 -24 -24 1030.4 992.1 -18.7 -1.6 141
09 22.03 З 3 24 км ясно -19.8 -24.0 69 -27 -27 1031.8 993.5
12 22.03 З 3 24 км ясно -20.7 -24.2 73 -28 -27 1034.1 995.5 -21.6 -1.6
15 22.03 СЗ 6 24 км ясно -14.1 -23.9 43 -23 -20 1034.9 996.4
18 22.03 З 5 24 км ясно -8.0 -21.7 32 -15 -9 1033.5 995.2 -21.6 -8.0
21 22.03 З 5 24 км ясно -4.5 -20.5 27 -10 -8 1031.5 993.4
00 23.03 СЗ 2 24 км 1/0
[Ac trans]
-6.8 -19.9 34 -11 -11 1031.5 993.3 -21.6 -4.2
03 23.03 ЮЗ 1 24 км ясно -14.2 -21.0 56 -17 -17 1031.4 993.1
06 23.03 З 2 24 км ясно -11.9 -19.2 55 -16 -16 1031.6 993.7 -21.6 -4.2 22
09 23.03 Ю 2 24 км ясно -16.1 -19.4 76 -20 -20 1031.9 994.0
12 23.03 Ю 2 24 км ясно -15.4 -18.1 80 -21 -20 1032.6 994.6 -18.1 -4.2
15 23.03 Ю 4 24 км 8/0
[]
-6.0 -14.8 50 -12 -9 1031.5 993.6
18 23.03 Ю 6 24 км 9/0
[Ac und]
0.0 -15.3 31 -5 -4 1027.4 990.0 -18.1 0.0
21 23.03 Ю 6 24 км 6/0
[]
+1.8 -12.1 35 -3 -2 1023.9 986.5
00 24.03 ЮЗ 4 24 км 10/0 2000 м
[Ac trans]
+0.6 -12.2 38 -3 -3 1021.9 984.6 -18.1 +2.3
03 24.03 Ю 6 24 км 10/10 1500 м
[]
-1.2 -7.8 61 -8 -8 1018.7 981.8
06 24.03 Ю 5 1200 м слабый снег н/о -3.2 -4.3 92 -10 -10 1017.1 980.4 -18.1 +2.3 1
09 24.03 Ю 4 9000 м 10/10 200 м
[]
-2.7 -4.0 91 -9 -9 1014.6 978.1
12 24.03 Ю 3 24 км слабый снег 10/10 300 м
[Frnb]
-2.1 -3.5 90 -7 -7 1013.7 977.2 -3.2 +2.3
15 24.03 З 3 16 км 10/10 100 м
[]
-0.5 -2.4 87 -5 -5 1014.2 977.7
18 24.03 СЗ 4 16 км слабый снег 10/10 200 м
[Sc]
+0.3 -1.2 90 -5 -5 1015.8 979.2 -3.2 +0.3
21 24.03 С 5 4800 м 10/10 200 м
[]
+0.1 -1.2 91 -6 -6 1018.8 982.1
00 25.03 С 5 24 км {снег} 10/10 300 м
[Sc]
-3.1 -5.8 82 -10 -10 1023.5 986.5 -3.2 +0.6
03 25.03 С 3 24 км 5/5 600 м
[]
-7.8 -10.8 79 -14 -14 1028.1 990.8
06 25.03 С 3 24 км {снег} 3/0
[Ac As]
-13.5 -15.8 83 -20 -20 1030.1 992.5 -13.8 +0.6 231
09 25.03 С 3 24 км 4/4 1000 м
[]
-17.1 -19.5 82 -23 -23 1031.7 993.9
12 25.03 СВ 2 24 км 1/0
[Ci fib]
-18.3 -20.2 85 -23 -22 1034.4 996.3 -19.2 +0.6
15 25.03 ЮВ 2 24 км 1/0
[]
-10.7 -18.5 53 -14 -7 1035.8 997.8
18 25.03 В 2 24 км ясно -4.9 -16.0 41 -8 +2 1034.8 996.8 -19.2 -4.9
21 25.03 В 4 24 км ясно -2.9 -17.8 31 -8 -5 1033.2 995.2
00 26.03 В 3 24 км 1/0
[Ci fib]
-4.8 -18.1 34 -9 -9 1033.5 995.4 -19.2 -2.6
03 26.03 В 3 24 км 3/0
[]
-7.9 -18.7 42 -13 -13 1032.6 994.7
06 26.03 В 4 24 км 10/0
[Ci]
-8.6 -17.8 47 -15 -15 1030.8 993.2 -19.2 -2.6
09 26.03 ЮВ 4 24 км ясно -10.3 -18.2 52 -17 -17 1029.1 991.6
12 26.03 В 4 24 км 8/0
[Ci]
-10.4 -18.3 52 -17 -17 1027.8 990.2 -10.7 -2.6
15 26.03 ЮВ 4 24 км 8/0
[]
-3.3 -14.5 42 -9 -6 1025.4 988.1
18 26.03 ЮВ 5 16 км ледяной дождь 10/10 1500 м
[Sc Ac und]
-0.9 -8.4 57 -7 -7 1022.1 985.0 -10.7 0.0
21 26.03 ЮВ 6 9000 м 10/10 200 м
[]
-1.6 -3.2 89 -9 -9 1019.0 981.9
00 27.03 ЮВ 5 8000 м слабый переохл. дождь (гололёд) {снег} 10/10 200 м
[Sc]
-0.7 -1.7 93 -7 -7 1017.7 980.7 -10.7 0.0
03 27.03 ЮВ 5 16 км 10/10 200 м
[]
-0.5 -1.5 93 -7 -7 1015.0 978.4
06 27.03 Ю 3 11 км слабый переохл. дождь (гололёд) 10/10 200 м
[Frnb]
-0.4 -1.3 94 -5 -5 1013.1 976.6 -10.7 0.0 200
09 27.03 Ю 1 12 км 10/10 200 м
[]
-0.4 -1.1 95 -3 -3 1011.5 975.1
12 27.03 Ю 1 4800 м слабый переохл. дождь (гололёд) 10/10 50 м
[Sc]
-0.5 -1.1 96 -3 -3 1011.5 975.1 -0.8 0.0
15 27.03 З 1 1600 м 10/10 100 м
[]
+0.1 -0.3 97 -2 -2 1012.2 975.8
18 27.03 С 4 24 км слабый дождь {морось} 10/10 100 м
[Sc]
+1.1 +0.2 94 -4 -4 1012.7 976.3 -2.3 +1.5
21 27.03 СЗ 4 12 км 10/10 200 м
[]
+1.7 +0.7 93 -3 -3 1013.1 976.7
00 28.03 СЗ 3 24 км {дождь, морось} 10/10 50 м
[Frnb]
+1.6 +0.9 95 -3 -3 1014.8 978.4 -0.5 +1.9

 

Местоположение метеостанции Timmins (Канада): широта 48.57 долгота -81.36 высота над уровнем моря 295 м.

В архиве по умолчанию представлена погода в Timmins за последнюю неделю. Архивные данные за месяц целиком и за предыдущие месяцы, начиная с января 2011 года, Вы можете получить, выбрав интересующий диапазон дат из раскрывающегося списка и нажав кнопку "Ввод!".

Внимание! Время в таблицах - всемирное. Для получения местного времени необходимо прибавить поправку, которая в Timmins равна -5 ч.

Смотрите также архив погоды в соседних городах и на ближайших метеорологических станциях:

Погода в Timmins Climate (Канада) (3 км)
Погода в Kirkland Lake (Канада) (111 км)
Погода в Kapuskasing (Канада) (122 км)
Погода в Kapuskasing (Канада) (122 км)
Погода в Kapuskasing Airport (Канада) (124 км)
Погода в Earlton (Канада) (148 км)
Погода в Earlton Climate (Канада) (151 км)
Погода в Chapleau A (Канада) (169 км)
Погода в Rouyn (Канада) (176 км)
Погода в Barrage Angliers (Канада) (195 км)

Пояснения к столбцам:

Ветер - указаны скорость ветра в м/с - средняя за 10 мин, порывы в срок и между сроками (в фигурных скобках) и направление, откуда дует ветер: С - северный, СВ - северо-восточный, В - восточный, ЮВ - юго-восточный, Ю - южный, ЮЗ - юго-западный, З - западный, СЗ - северо-западный.
Видимость - горизонтальная дальность видимости в метрах или километрах. При видимости от 1 до 10 км при отсутствии осадков обычно наблюдается дымка, при ухудшении видимости до 1 км и менее - туман. В сухую погоду видимость может ухудшаться дымом, пылью или мглою.
Явления - указаны атмосферные явления, наблюдавшиеся в срок или в последний час перед сроком; фигурными скобками обозначены явления, наблюдавшиеся между сроками (за 1-3 часа до срока); квадратными скобками обозначены град или гололедные отложения с указанием их диаметра в мм.
Облачность - указаны через наклонную черту общая и нижняя облачность в баллах и высота нижней границы облаков в метрах; квадратными скобками обозначены формы облаков: Ci - перистые, Cs - перисто-слоистые, Cc - перисто-кучевые, Ac - высококучевые, As - высокослоистые, Sc - слоисто-кучевые, Ns - слоисто-дождевые, Cu - кучевые, Cb - кучево-дождевые. Подробнее классификацию облаков см. в Атласе облаков (PDF).
T - Температура воздуха - температура, измеренная на высоте 2 м над землей.
Td - Температура точки росы - температура, при понижении до которой содержащийся в воздухе водяной пар достигнет насыщения.
f - Относительная влажность воздуха - влажноcть воздуха, измеренная на высоте 2 м над землей.
Te - Эффективная температура - температура, которую ощущает одетый по сезону человек в тени. Характеристика душности погоды. При расчете учитывается влияние влажности воздуха и скорости ветра на теплоощущения человека.
Tes - Эффективная температура на солнце - температура, которую ощущает человек, с поправкой на солнечный нагрев. Характеристика знойности погоды. Зависит от высоты солнца над горизонтом, облачности и скорости ветра. Ночью, в пасмурную погоду, а также при ветре 12 м/с и более поправка равна нулю.
P - Атмосферное давление - приведенное к уровню моря атмосферное давление.
Po - Атмосферное давление - измеренное на уровне метеостанции атмосферное давление.
Tmin - Минимальная температура - минимум температуры воздуха на высоте 2 м над землей.
Tmax - Максимальная температура - максимум температуры воздуха на высоте 2 м над землей.
R - Количество осадков - Количество выпавших осадков, мм. При наведении курсора мыши на число - период времени, за который выпало указанное количество осадков.
S - Снежный покров - Высота снежного покрова, см. При наведении курсора мыши на число - состояние снежного покрова и степень покрытия местности в баллах.